Index of /20260430/WXO-DD/model_gdps/15km/12/060
Name Last modified Size Description
Parent Directory -
20260430T12Z_MSC_GDPS_AbsoluteVorticity_IsbL-0200_LatLon0.15_PT060H.grib2 2026-04-30 16:06 1.5M
20260430T12Z_MSC_GDPS_AbsoluteVorticity_IsbL-0250_LatLon0.15_PT060H.grib2 2026-04-30 16:06 1.3M
20260430T12Z_MSC_GDPS_AbsoluteVorticity_IsbL-0500_LatLon0.15_PT060H.grib2 2026-04-30 16:06 1.4M
20260430T12Z_MSC_GDPS_AbsoluteVorticity_IsbL-0700_LatLon0.15_PT060H.grib2 2026-04-30 16:06 1.6M
20260430T12Z_MSC_GDPS_AbsoluteVorticity_IsbL-0850_LatLon0.15_PT060H.grib2 2026-04-30 16:06 1.6M
20260430T12Z_MSC_GDPS_AirTemp-Max_AGL-2m_LatLon0.15_PT060H.grib2 2026-04-30 16:06 745K
20260430T12Z_MSC_GDPS_AirTemp-Min_AGL-2m_LatLon0.15_PT060H.grib2 2026-04-30 16:06 794K
20260430T12Z_MSC_GDPS_AirTemp_AGL-120m_LatLon0.15_PT060H.grib2 2026-04-30 16:06 909K
20260430T12Z_MSC_GDPS_AirTemp_AGL-2m_LatLon0.15_PT060H.grib2 2026-04-30 16:06 1.0M
20260430T12Z_MSC_GDPS_AirTemp_AGL-40m_LatLon0.15_PT060H.grib2 2026-04-30 16:06 932K
20260430T12Z_MSC_GDPS_AirTemp_AGL-80m_LatLon0.15_PT060H.grib2 2026-04-30 16:06 920K
20260430T12Z_MSC_GDPS_AirTemp_IsbL-0001_LatLon0.15_PT060H.grib2 2026-04-30 16:06 713K
20260430T12Z_MSC_GDPS_AirTemp_IsbL-0005_LatLon0.15_PT060H.grib2 2026-04-30 16:06 687K
20260430T12Z_MSC_GDPS_AirTemp_IsbL-0010_LatLon0.15_PT060H.grib2 2026-04-30 16:06 694K
20260430T12Z_MSC_GDPS_AirTemp_IsbL-0020_LatLon0.15_PT060H.grib2 2026-04-30 16:06 783K
20260430T12Z_MSC_GDPS_AirTemp_IsbL-0030_LatLon0.15_PT060H.grib2 2026-04-30 16:06 835K
20260430T12Z_MSC_GDPS_AirTemp_IsbL-0050_LatLon0.15_PT060H.grib2 2026-04-30 16:06 810K
20260430T12Z_MSC_GDPS_AirTemp_IsbL-0100_LatLon0.15_PT060H.grib2 2026-04-30 16:06 966K
20260430T12Z_MSC_GDPS_AirTemp_IsbL-0150_LatLon0.15_PT060H.grib2 2026-04-30 16:06 1.0M
20260430T12Z_MSC_GDPS_AirTemp_IsbL-0175_LatLon0.15_PT060H.grib2 2026-04-30 16:06 961K
20260430T12Z_MSC_GDPS_AirTemp_IsbL-0200_LatLon0.15_PT060H.grib2 2026-04-30 16:06 972K
20260430T12Z_MSC_GDPS_AirTemp_IsbL-0225_LatLon0.15_PT060H.grib2 2026-04-30 16:06 1.0M
20260430T12Z_MSC_GDPS_AirTemp_IsbL-0250_LatLon0.15_PT060H.grib2 2026-04-30 16:06 1.0M
20260430T12Z_MSC_GDPS_AirTemp_IsbL-0275_LatLon0.15_PT060H.grib2 2026-04-30 16:06 1.0M
20260430T12Z_MSC_GDPS_AirTemp_IsbL-0300_LatLon0.15_PT060H.grib2 2026-04-30 16:06 1.0M
20260430T12Z_MSC_GDPS_AirTemp_IsbL-0350_LatLon0.15_PT060H.grib2 2026-04-30 16:06 928K
20260430T12Z_MSC_GDPS_AirTemp_IsbL-0400_LatLon0.15_PT060H.grib2 2026-04-30 16:06 940K
20260430T12Z_MSC_GDPS_AirTemp_IsbL-0450_LatLon0.15_PT060H.grib2 2026-04-30 16:06 960K
20260430T12Z_MSC_GDPS_AirTemp_IsbL-0500_LatLon0.15_PT060H.grib2 2026-04-30 16:06 1.0M
20260430T12Z_MSC_GDPS_AirTemp_IsbL-0550_LatLon0.15_PT060H.grib2 2026-04-30 16:06 798K
20260430T12Z_MSC_GDPS_AirTemp_IsbL-0600_LatLon0.15_PT060H.grib2 2026-04-30 16:06 890K
20260430T12Z_MSC_GDPS_AirTemp_IsbL-0650_LatLon0.15_PT060H.grib2 2026-04-30 16:06 918K
20260430T12Z_MSC_GDPS_AirTemp_IsbL-0700_LatLon0.15_PT060H.grib2 2026-04-30 16:06 950K
20260430T12Z_MSC_GDPS_AirTemp_IsbL-0750_LatLon0.15_PT060H.grib2 2026-04-30 16:06 1.0M
20260430T12Z_MSC_GDPS_AirTemp_IsbL-0800_LatLon0.15_PT060H.grib2 2026-04-30 16:06 1.0M
20260430T12Z_MSC_GDPS_AirTemp_IsbL-0850_LatLon0.15_PT060H.grib2 2026-04-30 16:06 1.1M
20260430T12Z_MSC_GDPS_AirTemp_IsbL-0875_LatLon0.15_PT060H.grib2 2026-04-30 16:06 1.1M
20260430T12Z_MSC_GDPS_AirTemp_IsbL-0900_LatLon0.15_PT060H.grib2 2026-04-30 16:06 1.1M
20260430T12Z_MSC_GDPS_AirTemp_IsbL-0925_LatLon0.15_PT060H.grib2 2026-04-30 16:06 1.1M
20260430T12Z_MSC_GDPS_AirTemp_IsbL-0950_LatLon0.15_PT060H.grib2 2026-04-30 16:06 1.1M
20260430T12Z_MSC_GDPS_AirTemp_IsbL-0970_LatLon0.15_PT060H.grib2 2026-04-30 16:06 1.1M
20260430T12Z_MSC_GDPS_AirTemp_IsbL-0985_LatLon0.15_PT060H.grib2 2026-04-30 16:06 1.1M
20260430T12Z_MSC_GDPS_AirTemp_IsbL-1000_LatLon0.15_PT060H.grib2 2026-04-30 16:06 1.1M
20260430T12Z_MSC_GDPS_AirTemp_IsbL-1015_LatLon0.15_PT060H.grib2 2026-04-30 16:06 1.1M
20260430T12Z_MSC_GDPS_Albedo_Sfc_LatLon0.15_PT060H.grib2 2026-04-30 16:06 242K
20260430T12Z_MSC_GDPS_CAPE_Sfc_LatLon0.15_PT060H.grib2 2026-04-30 16:06 4.0M
20260430T12Z_MSC_GDPS_CIN_Sfc_LatLon0.15_PT060H.grib2 2026-04-30 16:06 2.9M
20260430T12Z_MSC_GDPS_CloudWater_EAtm_LatLon0.15_PT060H.grib2 2026-04-30 16:06 532K
20260430T12Z_MSC_GDPS_ConvectivePrecip-Accum_Sfc_LatLon0.15_PT060H.grib2 2026-04-30 16:06 3.1M
20260430T12Z_MSC_GDPS_DewPointDepression_AGL-2m_LatLon0.15_PT060H.grib2 2026-04-30 16:06 764K
20260430T12Z_MSC_GDPS_DewPointDepression_IsbL-0010_LatLon0.15_PT060H.grib2 2026-04-30 16:06 66K
20260430T12Z_MSC_GDPS_DewPointDepression_IsbL-0020_LatLon0.15_PT060H.grib2 2026-04-30 16:06 67K
20260430T12Z_MSC_GDPS_DewPointDepression_IsbL-0030_LatLon0.15_PT060H.grib2 2026-04-30 16:06 82K
20260430T12Z_MSC_GDPS_DewPointDepression_IsbL-0050_LatLon0.15_PT060H.grib2 2026-04-30 16:06 377K
20260430T12Z_MSC_GDPS_DewPointDepression_IsbL-0100_LatLon0.15_PT060H.grib2 2026-04-30 16:06 412K
20260430T12Z_MSC_GDPS_DewPointDepression_IsbL-0150_LatLon0.15_PT060H.grib2 2026-04-30 16:06 466K
20260430T12Z_MSC_GDPS_DewPointDepression_IsbL-0175_LatLon0.15_PT060H.grib2 2026-04-30 16:06 576K
20260430T12Z_MSC_GDPS_DewPointDepression_IsbL-0200_LatLon0.15_PT060H.grib2 2026-04-30 16:06 686K
20260430T12Z_MSC_GDPS_DewPointDepression_IsbL-0225_LatLon0.15_PT060H.grib2 2026-04-30 16:06 782K
20260430T12Z_MSC_GDPS_DewPointDepression_IsbL-0250_LatLon0.15_PT060H.grib2 2026-04-30 16:06 860K
20260430T12Z_MSC_GDPS_DewPointDepression_IsbL-0275_LatLon0.15_PT060H.grib2 2026-04-30 16:06 878K
20260430T12Z_MSC_GDPS_DewPointDepression_IsbL-0300_LatLon0.15_PT060H.grib2 2026-04-30 16:06 917K
20260430T12Z_MSC_GDPS_DewPointDepression_IsbL-0350_LatLon0.15_PT060H.grib2 2026-04-30 16:06 951K
20260430T12Z_MSC_GDPS_DewPointDepression_IsbL-0400_LatLon0.15_PT060H.grib2 2026-04-30 16:06 1.0M
20260430T12Z_MSC_GDPS_DewPointDepression_IsbL-0450_LatLon0.15_PT060H.grib2 2026-04-30 16:06 1.0M
20260430T12Z_MSC_GDPS_DewPointDepression_IsbL-0500_LatLon0.15_PT060H.grib2 2026-04-30 16:06 1.0M
20260430T12Z_MSC_GDPS_DewPointDepression_IsbL-0550_LatLon0.15_PT060H.grib2 2026-04-30 16:06 1.0M
20260430T12Z_MSC_GDPS_DewPointDepression_IsbL-0600_LatLon0.15_PT060H.grib2 2026-04-30 16:06 1.0M
20260430T12Z_MSC_GDPS_DewPointDepression_IsbL-0650_LatLon0.15_PT060H.grib2 2026-04-30 16:06 1.1M
20260430T12Z_MSC_GDPS_DewPointDepression_IsbL-0700_LatLon0.15_PT060H.grib2 2026-04-30 16:06 1.1M
20260430T12Z_MSC_GDPS_DewPointDepression_IsbL-0750_LatLon0.15_PT060H.grib2 2026-04-30 16:06 1.1M
20260430T12Z_MSC_GDPS_DewPointDepression_IsbL-0800_LatLon0.15_PT060H.grib2 2026-04-30 16:06 1.2M
20260430T12Z_MSC_GDPS_DewPointDepression_IsbL-0850_LatLon0.15_PT060H.grib2 2026-04-30 16:06 1.2M
20260430T12Z_MSC_GDPS_DewPointDepression_IsbL-0875_LatLon0.15_PT060H.grib2 2026-04-30 16:06 1.1M
20260430T12Z_MSC_GDPS_DewPointDepression_IsbL-0900_LatLon0.15_PT060H.grib2 2026-04-30 16:06 1.1M
20260430T12Z_MSC_GDPS_DewPointDepression_IsbL-0925_LatLon0.15_PT060H.grib2 2026-04-30 16:06 1.0M
20260430T12Z_MSC_GDPS_DewPointDepression_IsbL-0950_LatLon0.15_PT060H.grib2 2026-04-30 16:06 1.0M
20260430T12Z_MSC_GDPS_DewPointDepression_IsbL-0970_LatLon0.15_PT060H.grib2 2026-04-30 16:06 1.0M
20260430T12Z_MSC_GDPS_DewPointDepression_IsbL-0985_LatLon0.15_PT060H.grib2 2026-04-30 16:06 1.0M
20260430T12Z_MSC_GDPS_DewPointDepression_IsbL-1000_LatLon0.15_PT060H.grib2 2026-04-30 16:06 1.0M
20260430T12Z_MSC_GDPS_DewPointDepression_IsbL-1015_LatLon0.15_PT060H.grib2 2026-04-30 16:06 916K
20260430T12Z_MSC_GDPS_DewPoint_AGL-2m_LatLon0.15_PT060H.grib2 2026-04-30 16:06 604K
20260430T12Z_MSC_GDPS_DownwardLongwaveRadiationFlux-Accum_Sfc_LatLon0.15_PT060H.grib2 2026-04-30 16:06 870K
20260430T12Z_MSC_GDPS_DownwardShortwaveRadiationFlux-Accum_NTAtm_LatLon0.15_PT060H.grib2 2026-04-30 16:06 220K
20260430T12Z_MSC_GDPS_DownwardShortwaveRadiationFlux-Accum_Sfc_LatLon0.15_PT060H.grib2 2026-04-30 16:06 1.1M
20260430T12Z_MSC_GDPS_FreezingRain-Accum12h_Sfc_LatLon0.15_PT060H.grib2 2026-04-30 16:06 110K
20260430T12Z_MSC_GDPS_FreezingRain-Accum1h_Sfc_LatLon0.15_PT060H.grib2 2026-04-30 16:06 34K
20260430T12Z_MSC_GDPS_FreezingRain-Accum24h_Sfc_LatLon0.15_PT060H.grib2 2026-04-30 16:06 157K
20260430T12Z_MSC_GDPS_FreezingRain-Accum3h_Sfc_LatLon0.15_PT060H.grib2 2026-04-30 16:06 46K
20260430T12Z_MSC_GDPS_FreezingRain-Accum6h_Sfc_LatLon0.15_PT060H.grib2 2026-04-30 16:06 67K
20260430T12Z_MSC_GDPS_FreezingRain-Accum_Sfc_LatLon0.15_PT060H.grib2 2026-04-30 16:06 305K
20260430T12Z_MSC_GDPS_GeopotentialHeight_IsbL-0001_LatLon0.15_PT060H.grib2 2026-04-30 16:06 424K
20260430T12Z_MSC_GDPS_GeopotentialHeight_IsbL-0005_LatLon0.15_PT060H.grib2 2026-04-30 16:06 489K
20260430T12Z_MSC_GDPS_GeopotentialHeight_IsbL-0010_LatLon0.15_PT060H.grib2 2026-04-30 16:06 480K
20260430T12Z_MSC_GDPS_GeopotentialHeight_IsbL-0020_LatLon0.15_PT060H.grib2 2026-04-30 16:06 412K
20260430T12Z_MSC_GDPS_GeopotentialHeight_IsbL-0030_LatLon0.15_PT060H.grib2 2026-04-30 16:06 566K
20260430T12Z_MSC_GDPS_GeopotentialHeight_IsbL-0050_LatLon0.15_PT060H.grib2 2026-04-30 16:06 565K
20260430T12Z_MSC_GDPS_GeopotentialHeight_IsbL-0100_LatLon0.15_PT060H.grib2 2026-04-30 16:06 608K
20260430T12Z_MSC_GDPS_GeopotentialHeight_IsbL-0150_LatLon0.15_PT060H.grib2 2026-04-30 16:06 627K
20260430T12Z_MSC_GDPS_GeopotentialHeight_IsbL-0175_LatLon0.15_PT060H.grib2 2026-04-30 16:06 628K
20260430T12Z_MSC_GDPS_GeopotentialHeight_IsbL-0200_LatLon0.15_PT060H.grib2 2026-04-30 16:06 634K
20260430T12Z_MSC_GDPS_GeopotentialHeight_IsbL-0225_LatLon0.15_PT060H.grib2 2026-04-30 16:06 637K
20260430T12Z_MSC_GDPS_GeopotentialHeight_IsbL-0250_LatLon0.15_PT060H.grib2 2026-04-30 16:06 637K
20260430T12Z_MSC_GDPS_GeopotentialHeight_IsbL-0275_LatLon0.15_PT060H.grib2 2026-04-30 16:06 639K
20260430T12Z_MSC_GDPS_GeopotentialHeight_IsbL-0300_LatLon0.15_PT060H.grib2 2026-04-30 16:06 637K
20260430T12Z_MSC_GDPS_GeopotentialHeight_IsbL-0350_LatLon0.15_PT060H.grib2 2026-04-30 16:06 627K
20260430T12Z_MSC_GDPS_GeopotentialHeight_IsbL-0400_LatLon0.15_PT060H.grib2 2026-04-30 16:06 619K
20260430T12Z_MSC_GDPS_GeopotentialHeight_IsbL-0450_LatLon0.15_PT060H.grib2 2026-04-30 16:06 610K
20260430T12Z_MSC_GDPS_GeopotentialHeight_IsbL-0500_LatLon0.15_PT060H.grib2 2026-04-30 16:06 530K
20260430T12Z_MSC_GDPS_GeopotentialHeight_IsbL-0550_LatLon0.15_PT060H.grib2 2026-04-30 16:06 526K
20260430T12Z_MSC_GDPS_GeopotentialHeight_IsbL-0600_LatLon0.15_PT060H.grib2 2026-04-30 16:06 521K
20260430T12Z_MSC_GDPS_GeopotentialHeight_IsbL-0650_LatLon0.15_PT060H.grib2 2026-04-30 16:06 686K
20260430T12Z_MSC_GDPS_GeopotentialHeight_IsbL-0700_LatLon0.15_PT060H.grib2 2026-04-30 16:06 685K
20260430T12Z_MSC_GDPS_GeopotentialHeight_IsbL-0750_LatLon0.15_PT060H.grib2 2026-04-30 16:06 691K
20260430T12Z_MSC_GDPS_GeopotentialHeight_IsbL-0800_LatLon0.15_PT060H.grib2 2026-04-30 16:06 700K
20260430T12Z_MSC_GDPS_GeopotentialHeight_IsbL-0850_LatLon0.15_PT060H.grib2 2026-04-30 16:06 710K
20260430T12Z_MSC_GDPS_GeopotentialHeight_IsbL-0875_LatLon0.15_PT060H.grib2 2026-04-30 16:06 714K
20260430T12Z_MSC_GDPS_GeopotentialHeight_IsbL-0900_LatLon0.15_PT060H.grib2 2026-04-30 16:06 723K
20260430T12Z_MSC_GDPS_GeopotentialHeight_IsbL-0925_LatLon0.15_PT060H.grib2 2026-04-30 16:06 734K
20260430T12Z_MSC_GDPS_GeopotentialHeight_IsbL-0950_LatLon0.15_PT060H.grib2 2026-04-30 16:06 741K
20260430T12Z_MSC_GDPS_GeopotentialHeight_IsbL-0970_LatLon0.15_PT060H.grib2 2026-04-30 16:06 752K
20260430T12Z_MSC_GDPS_GeopotentialHeight_IsbL-0985_LatLon0.15_PT060H.grib2 2026-04-30 16:06 767K
20260430T12Z_MSC_GDPS_GeopotentialHeight_IsbL-1000_LatLon0.15_PT060H.grib2 2026-04-30 16:06 788K
20260430T12Z_MSC_GDPS_GeopotentialHeight_IsbL-1015_LatLon0.15_PT060H.grib2 2026-04-30 16:06 810K
20260430T12Z_MSC_GDPS_Humidex_Sfc_LatLon0.15_PT060H.grib2 2026-04-30 16:06 5.3M
20260430T12Z_MSC_GDPS_IcePellets-Accum12h_Sfc_LatLon0.15_PT060H.grib2 2026-04-30 16:06 16K
20260430T12Z_MSC_GDPS_IcePellets-Accum1h_Sfc_LatLon0.15_PT060H.grib2 2026-04-30 16:06 3.9K
20260430T12Z_MSC_GDPS_IcePellets-Accum24h_Sfc_LatLon0.15_PT060H.grib2 2026-04-30 16:06 24K
20260430T12Z_MSC_GDPS_IcePellets-Accum3h_Sfc_LatLon0.15_PT060H.grib2 2026-04-30 16:06 6.0K
20260430T12Z_MSC_GDPS_IcePellets-Accum6h_Sfc_LatLon0.15_PT060H.grib2 2026-04-30 16:06 10K
20260430T12Z_MSC_GDPS_IcePellets-Accum_Sfc_LatLon0.15_PT060H.grib2 2026-04-30 16:06 67K
20260430T12Z_MSC_GDPS_KIndex_Sfc_LatLon0.15_PT060H.grib2 2026-04-30 16:06 6.5M
20260430T12Z_MSC_GDPS_LatentHeatNetFlux_Sfc_LatLon0.15_PT060H.grib2 2026-04-30 16:06 665K
20260430T12Z_MSC_GDPS_LiftedIndex-MU-VT_IsbL-0500_LatLon0.15_PT060H.grib2 2026-04-30 16:06 5.4M
20260430T12Z_MSC_GDPS_NetLongwaveRadiationFlux-Accum_Sfc_LatLon0.15_PT060H.grib2 2026-04-30 16:06 1.2M
20260430T12Z_MSC_GDPS_NetShortwaveRadiationFlux-Accum_Sfc_LatLon0.15_PT060H.grib2 2026-04-30 16:06 1.0M
20260430T12Z_MSC_GDPS_O3MixingRatio_Sfc_LatLon0.15_PT060H.grib2 2026-04-30 16:44 2.0M
20260430T12Z_MSC_GDPS_O3_EAtm_LatLon0.15_PT060H.grib2 2026-04-30 16:44 2.5M
20260430T12Z_MSC_GDPS_PlanetaryBoundaryLayerHeight_Sfc_LatLon0.15_PT060H.grib2 2026-04-30 16:06 2.4M
20260430T12Z_MSC_GDPS_Precip-Accum12h_Sfc_LatLon0.15_PT060H.grib2 2026-04-30 16:06 4.0M
20260430T12Z_MSC_GDPS_Precip-Accum1h_Sfc_LatLon0.15_PT060H.grib2 2026-04-30 16:06 3.2M
20260430T12Z_MSC_GDPS_Precip-Accum24h_Sfc_LatLon0.15_PT060H.grib2 2026-04-30 16:06 4.5M
20260430T12Z_MSC_GDPS_Precip-Accum3h_Sfc_LatLon0.15_PT060H.grib2 2026-04-30 16:06 3.4M
20260430T12Z_MSC_GDPS_Precip-Accum6h_Sfc_LatLon0.15_PT060H.grib2 2026-04-30 16:06 3.8M
20260430T12Z_MSC_GDPS_Precip-Accum_Sfc_LatLon0.15_PT060H.grib2 2026-04-30 16:06 5.0M
20260430T12Z_MSC_GDPS_PrecipRate_Sfc_LatLon0.15_PT060H.grib2 2026-04-30 16:06 3.1M
20260430T12Z_MSC_GDPS_PrecipType-Instant_Sfc_LatLon0.15_PT060H.grib2 2026-04-30 16:06 1.6M
20260430T12Z_MSC_GDPS_Pressure_MSL_LatLon0.15_PT060H.grib2 2026-04-30 16:06 721K
20260430T12Z_MSC_GDPS_Pressure_PVU-1.5_LatLon0.15_PT060H.grib2 2026-04-30 16:06 5.8M
20260430T12Z_MSC_GDPS_Pressure_PVU-1_LatLon0.15_PT060H.grib2 2026-04-30 16:06 6.0M
20260430T12Z_MSC_GDPS_Pressure_PVU-2_LatLon0.15_PT060H.grib2 2026-04-30 16:06 5.6M
20260430T12Z_MSC_GDPS_Pressure_Sfc_LatLon0.15_PT060H.grib2 2026-04-30 16:06 1.1M
20260430T12Z_MSC_GDPS_RadiativeTemp_Sfc_LatLon0.15_PT060H.grib2 2026-04-30 16:06 655K
20260430T12Z_MSC_GDPS_Rain-Accum12h_Sfc_LatLon0.15_PT060H.grib2 2026-04-30 16:06 2.7M
20260430T12Z_MSC_GDPS_Rain-Accum1h_Sfc_LatLon0.15_PT060H.grib2 2026-04-30 16:06 1.6M
20260430T12Z_MSC_GDPS_Rain-Accum24h_Sfc_LatLon0.15_PT060H.grib2 2026-04-30 16:06 3.2M
20260430T12Z_MSC_GDPS_Rain-Accum3h_Sfc_LatLon0.15_PT060H.grib2 2026-04-30 16:06 1.8M
20260430T12Z_MSC_GDPS_Rain-Accum6h_Sfc_LatLon0.15_PT060H.grib2 2026-04-30 16:06 2.4M
20260430T12Z_MSC_GDPS_Rain-Accum_Sfc_LatLon0.15_PT060H.grib2 2026-04-30 16:06 3.8M
20260430T12Z_MSC_GDPS_RelativeHumidity_AGL-2m_LatLon0.15_PT060H.grib2 2026-04-30 16:06 1.0M
20260430T12Z_MSC_GDPS_RelativeHumidity_IsbL-0010_LatLon0.15_PT060H.grib2 2026-04-30 16:06 202K
20260430T12Z_MSC_GDPS_RelativeHumidity_IsbL-0020_LatLon0.15_PT060H.grib2 2026-04-30 16:06 168K
20260430T12Z_MSC_GDPS_RelativeHumidity_IsbL-0030_LatLon0.15_PT060H.grib2 2026-04-30 16:06 272K
20260430T12Z_MSC_GDPS_RelativeHumidity_IsbL-0050_LatLon0.15_PT060H.grib2 2026-04-30 16:06 422K
20260430T12Z_MSC_GDPS_RelativeHumidity_IsbL-0100_LatLon0.15_PT060H.grib2 2026-04-30 16:06 515K
20260430T12Z_MSC_GDPS_RelativeHumidity_IsbL-0150_LatLon0.15_PT060H.grib2 2026-04-30 16:06 661K
20260430T12Z_MSC_GDPS_RelativeHumidity_IsbL-0175_LatLon0.15_PT060H.grib2 2026-04-30 16:06 781K
20260430T12Z_MSC_GDPS_RelativeHumidity_IsbL-0200_LatLon0.15_PT060H.grib2 2026-04-30 16:06 703K
20260430T12Z_MSC_GDPS_RelativeHumidity_IsbL-0225_LatLon0.15_PT060H.grib2 2026-04-30 16:06 794K
20260430T12Z_MSC_GDPS_RelativeHumidity_IsbL-0250_LatLon0.15_PT060H.grib2 2026-04-30 16:06 863K
20260430T12Z_MSC_GDPS_RelativeHumidity_IsbL-0275_LatLon0.15_PT060H.grib2 2026-04-30 16:06 883K
20260430T12Z_MSC_GDPS_RelativeHumidity_IsbL-0300_LatLon0.15_PT060H.grib2 2026-04-30 16:06 924K
20260430T12Z_MSC_GDPS_RelativeHumidity_IsbL-0350_LatLon0.15_PT060H.grib2 2026-04-30 16:06 946K
20260430T12Z_MSC_GDPS_RelativeHumidity_IsbL-0400_LatLon0.15_PT060H.grib2 2026-04-30 16:06 969K
20260430T12Z_MSC_GDPS_RelativeHumidity_IsbL-0450_LatLon0.15_PT060H.grib2 2026-04-30 16:06 1.0M
20260430T12Z_MSC_GDPS_RelativeHumidity_IsbL-0500_LatLon0.15_PT060H.grib2 2026-04-30 16:06 1.0M
20260430T12Z_MSC_GDPS_RelativeHumidity_IsbL-0550_LatLon0.15_PT060H.grib2 2026-04-30 16:06 1.1M
20260430T12Z_MSC_GDPS_RelativeHumidity_IsbL-0600_LatLon0.15_PT060H.grib2 2026-04-30 16:06 1.1M
20260430T12Z_MSC_GDPS_RelativeHumidity_IsbL-0650_LatLon0.15_PT060H.grib2 2026-04-30 16:06 1.1M
20260430T12Z_MSC_GDPS_RelativeHumidity_IsbL-0700_LatLon0.15_PT060H.grib2 2026-04-30 16:06 1.1M
20260430T12Z_MSC_GDPS_RelativeHumidity_IsbL-0750_LatLon0.15_PT060H.grib2 2026-04-30 16:06 1.2M
20260430T12Z_MSC_GDPS_RelativeHumidity_IsbL-0800_LatLon0.15_PT060H.grib2 2026-04-30 16:06 1.3M
20260430T12Z_MSC_GDPS_RelativeHumidity_IsbL-0850_LatLon0.15_PT060H.grib2 2026-04-30 16:06 1.3M
20260430T12Z_MSC_GDPS_RelativeHumidity_IsbL-0875_LatLon0.15_PT060H.grib2 2026-04-30 16:06 1.3M
20260430T12Z_MSC_GDPS_RelativeHumidity_IsbL-0900_LatLon0.15_PT060H.grib2 2026-04-30 16:06 1.2M
20260430T12Z_MSC_GDPS_RelativeHumidity_IsbL-0925_LatLon0.15_PT060H.grib2 2026-04-30 16:06 1.2M
20260430T12Z_MSC_GDPS_RelativeHumidity_IsbL-0950_LatLon0.15_PT060H.grib2 2026-04-30 16:06 1.2M
20260430T12Z_MSC_GDPS_RelativeHumidity_IsbL-0970_LatLon0.15_PT060H.grib2 2026-04-30 16:06 1.2M
20260430T12Z_MSC_GDPS_RelativeHumidity_IsbL-0985_LatLon0.15_PT060H.grib2 2026-04-30 16:06 1.2M
20260430T12Z_MSC_GDPS_RelativeHumidity_IsbL-1000_LatLon0.15_PT060H.grib2 2026-04-30 16:06 1.1M
20260430T12Z_MSC_GDPS_RelativeHumidity_IsbL-1015_LatLon0.15_PT060H.grib2 2026-04-30 16:06 1.0M
20260430T12Z_MSC_GDPS_RelativeVorticity_IsbL-0200_LatLon0.15_PT060H.grib2 2026-04-30 16:06 1.5M
20260430T12Z_MSC_GDPS_RelativeVorticity_IsbL-0250_LatLon0.15_PT060H.grib2 2026-04-30 16:06 1.6M
20260430T12Z_MSC_GDPS_RelativeVorticity_IsbL-0500_LatLon0.15_PT060H.grib2 2026-04-30 16:06 1.4M
20260430T12Z_MSC_GDPS_RelativeVorticity_IsbL-0700_LatLon0.15_PT060H.grib2 2026-04-30 16:06 1.6M
20260430T12Z_MSC_GDPS_RelativeVorticity_IsbL-0850_LatLon0.15_PT060H.grib2 2026-04-30 16:06 1.6M
20260430T12Z_MSC_GDPS_Runoff-Accum_Sfc_LatLon0.15_PT060H.grib2 2026-04-30 16:06 140K
20260430T12Z_MSC_GDPS_SensibleHeatNetFlux_Sfc_LatLon0.15_PT060H.grib2 2026-04-30 16:06 611K
20260430T12Z_MSC_GDPS_ShowalterIndex_IsbL-0500_LatLon0.15_PT060H.grib2 2026-04-30 16:06 6.2M
20260430T12Z_MSC_GDPS_Snow-Accum12h_Sfc_LatLon0.15_PT060H.grib2 2026-04-30 16:06 1.5M
20260430T12Z_MSC_GDPS_Snow-Accum1h_Sfc_LatLon0.15_PT060H.grib2 2026-04-30 16:06 1.3M
20260430T12Z_MSC_GDPS_Snow-Accum24h_Sfc_LatLon0.15_PT060H.grib2 2026-04-30 16:06 1.5M
20260430T12Z_MSC_GDPS_Snow-Accum3h_Sfc_LatLon0.15_PT060H.grib2 2026-04-30 16:06 1.1M
20260430T12Z_MSC_GDPS_Snow-Accum6h_Sfc_LatLon0.15_PT060H.grib2 2026-04-30 16:06 1.4M
20260430T12Z_MSC_GDPS_Snow-Accum_Sfc_LatLon0.15_PT060H.grib2 2026-04-30 16:06 1.8M
20260430T12Z_MSC_GDPS_SnowDensity_Sfc_LatLon0.15_PT060H.grib2 2026-04-30 16:06 263K
20260430T12Z_MSC_GDPS_SnowDepth_Sfc_LatLon0.15_PT060H.grib2 2026-04-30 16:06 1.7M
20260430T12Z_MSC_GDPS_SoilTemp_DBS-0to10cm_LatLon0.15_PT060H.grib2 2026-04-30 16:06 508K
20260430T12Z_MSC_GDPS_SoilTemp_Sfc_LatLon0.15_PT060H.grib2 2026-04-30 16:06 575K
20260430T12Z_MSC_GDPS_SoilVolumetricIceContent_Sfc_LatLon0.15_PT060H.grib2 2026-04-30 16:06 200K
20260430T12Z_MSC_GDPS_SoilVolumetricWaterContent_DBS-0to10cm_LatLon0.15_PT060H.grib2 2026-04-30 16:06 587K
20260430T12Z_MSC_GDPS_SoilVolumetricWaterContent_DBS-0to1cm_LatLon0.15_PT060H.grib2 2026-04-30 16:06 653K
20260430T12Z_MSC_GDPS_SpecificHumidity_AGL-120m_LatLon0.15_PT060H.grib2 2026-04-30 16:06 1.1M
20260430T12Z_MSC_GDPS_SpecificHumidity_AGL-2m_LatLon0.15_PT060H.grib2 2026-04-30 16:06 1.2M
20260430T12Z_MSC_GDPS_SpecificHumidity_AGL-40m_LatLon0.15_PT060H.grib2 2026-04-30 16:06 1.1M
20260430T12Z_MSC_GDPS_SpecificHumidity_AGL-80m_LatLon0.15_PT060H.grib2 2026-04-30 16:06 1.1M
20260430T12Z_MSC_GDPS_SpecificHumidity_IsbL-0001_LatLon0.15_PT060H.grib2 2026-04-30 16:06 1.3M
20260430T12Z_MSC_GDPS_SpecificHumidity_IsbL-0005_LatLon0.15_PT060H.grib2 2026-04-30 16:06 1.2M
20260430T12Z_MSC_GDPS_SpecificHumidity_IsbL-0010_LatLon0.15_PT060H.grib2 2026-04-30 16:06 1.3M
20260430T12Z_MSC_GDPS_SpecificHumidity_IsbL-0020_LatLon0.15_PT060H.grib2 2026-04-30 16:06 1.4M
20260430T12Z_MSC_GDPS_SpecificHumidity_IsbL-0030_LatLon0.15_PT060H.grib2 2026-04-30 16:06 1.3M
20260430T12Z_MSC_GDPS_SpecificHumidity_IsbL-0050_LatLon0.15_PT060H.grib2 2026-04-30 16:06 1.7M
20260430T12Z_MSC_GDPS_SpecificHumidity_IsbL-0100_LatLon0.15_PT060H.grib2 2026-04-30 16:06 1.4M
20260430T12Z_MSC_GDPS_SpecificHumidity_IsbL-0150_LatLon0.15_PT060H.grib2 2026-04-30 16:06 1.3M
20260430T12Z_MSC_GDPS_SpecificHumidity_IsbL-0175_LatLon0.15_PT060H.grib2 2026-04-30 16:06 1.2M
20260430T12Z_MSC_GDPS_SpecificHumidity_IsbL-0200_LatLon0.15_PT060H.grib2 2026-04-30 16:06 1.3M
20260430T12Z_MSC_GDPS_SpecificHumidity_IsbL-0225_LatLon0.15_PT060H.grib2 2026-04-30 16:06 1.3M
20260430T12Z_MSC_GDPS_SpecificHumidity_IsbL-0250_LatLon0.15_PT060H.grib2 2026-04-30 16:06 1.4M
20260430T12Z_MSC_GDPS_SpecificHumidity_IsbL-0275_LatLon0.15_PT060H.grib2 2026-04-30 16:06 1.3M
20260430T12Z_MSC_GDPS_SpecificHumidity_IsbL-0300_LatLon0.15_PT060H.grib2 2026-04-30 16:06 1.2M
20260430T12Z_MSC_GDPS_SpecificHumidity_IsbL-0350_LatLon0.15_PT060H.grib2 2026-04-30 16:06 1.2M
20260430T12Z_MSC_GDPS_SpecificHumidity_IsbL-0400_LatLon0.15_PT060H.grib2 2026-04-30 16:06 1.5M
20260430T12Z_MSC_GDPS_SpecificHumidity_IsbL-0450_LatLon0.15_PT060H.grib2 2026-04-30 16:06 1.6M
20260430T12Z_MSC_GDPS_SpecificHumidity_IsbL-0500_LatLon0.15_PT060H.grib2 2026-04-30 16:06 1.4M
20260430T12Z_MSC_GDPS_SpecificHumidity_IsbL-0550_LatLon0.15_PT060H.grib2 2026-04-30 16:06 1.6M
20260430T12Z_MSC_GDPS_SpecificHumidity_IsbL-0600_LatLon0.15_PT060H.grib2 2026-04-30 16:06 1.7M
20260430T12Z_MSC_GDPS_SpecificHumidity_IsbL-0650_LatLon0.15_PT060H.grib2 2026-04-30 16:06 1.5M
20260430T12Z_MSC_GDPS_SpecificHumidity_IsbL-0700_LatLon0.15_PT060H.grib2 2026-04-30 16:06 1.6M
20260430T12Z_MSC_GDPS_SpecificHumidity_IsbL-0750_LatLon0.15_PT060H.grib2 2026-04-30 16:06 1.7M
20260430T12Z_MSC_GDPS_SpecificHumidity_IsbL-0800_LatLon0.15_PT060H.grib2 2026-04-30 16:06 1.8M
20260430T12Z_MSC_GDPS_SpecificHumidity_IsbL-0850_LatLon0.15_PT060H.grib2 2026-04-30 16:06 1.9M
20260430T12Z_MSC_GDPS_SpecificHumidity_IsbL-0875_LatLon0.15_PT060H.grib2 2026-04-30 16:06 1.9M
20260430T12Z_MSC_GDPS_SpecificHumidity_IsbL-0900_LatLon0.15_PT060H.grib2 2026-04-30 16:06 1.9M
20260430T12Z_MSC_GDPS_SpecificHumidity_IsbL-0925_LatLon0.15_PT060H.grib2 2026-04-30 16:06 1.6M
20260430T12Z_MSC_GDPS_SpecificHumidity_IsbL-0950_LatLon0.15_PT060H.grib2 2026-04-30 16:06 1.6M
20260430T12Z_MSC_GDPS_SpecificHumidity_IsbL-0970_LatLon0.15_PT060H.grib2 2026-04-30 16:06 1.5M
20260430T12Z_MSC_GDPS_SpecificHumidity_IsbL-0985_LatLon0.15_PT060H.grib2 2026-04-30 16:06 1.5M
20260430T12Z_MSC_GDPS_SpecificHumidity_IsbL-1000_LatLon0.15_PT060H.grib2 2026-04-30 16:06 1.5M
20260430T12Z_MSC_GDPS_SpecificHumidity_IsbL-1015_LatLon0.15_PT060H.grib2 2026-04-30 16:06 1.4M
20260430T12Z_MSC_GDPS_SpecificHumidity_Sfc_LatLon0.15_PT060H.grib2 2026-04-30 16:06 630K
20260430T12Z_MSC_GDPS_Thickness_IsbL-0850to0700_LatLon0.15_PT060H.grib2 2026-04-30 16:06 464K
20260430T12Z_MSC_GDPS_Thickness_IsbL-1000to0500_LatLon0.15_PT060H.grib2 2026-04-30 16:06 370K
20260430T12Z_MSC_GDPS_Thickness_IsbL-1000to0850_LatLon0.15_PT060H.grib2 2026-04-30 16:06 488K
20260430T12Z_MSC_GDPS_TotalCloudCover_Sfc_LatLon0.15_PT060H.grib2 2026-04-30 16:06 821K
20260430T12Z_MSC_GDPS_TotalTotalsIndex_Sfc_LatLon0.15_PT060H.grib2 2026-04-30 16:06 6.2M
20260430T12Z_MSC_GDPS_UVIndex-ClearSky_Sfc_LatLon0.15_PT060H.grib2 2026-04-30 16:44 1.0M
20260430T12Z_MSC_GDPS_UVIndex_Sfc_LatLon0.15_PT060H.grib2 2026-04-30 16:44 1.5M
20260430T12Z_MSC_GDPS_UpwardLongwaveRadiationFlux_NTAtm_LatLon0.15_PT060H.grib2 2026-04-30 16:06 1.1M
20260430T12Z_MSC_GDPS_VerticalVelocity_IsbL-0200_LatLon0.15_PT060H.grib2 2026-04-30 16:06 1.2M
20260430T12Z_MSC_GDPS_VerticalVelocity_IsbL-0250_LatLon0.15_PT060H.grib2 2026-04-30 16:06 1.0M
20260430T12Z_MSC_GDPS_VerticalVelocity_IsbL-0500_LatLon0.15_PT060H.grib2 2026-04-30 16:06 1.3M
20260430T12Z_MSC_GDPS_VerticalVelocity_IsbL-0600_LatLon0.15_PT060H.grib2 2026-04-30 16:06 1.1M
20260430T12Z_MSC_GDPS_VerticalVelocity_IsbL-0700_LatLon0.15_PT060H.grib2 2026-04-30 16:06 1.1M
20260430T12Z_MSC_GDPS_VerticalVelocity_IsbL-0850_LatLon0.15_PT060H.grib2 2026-04-30 16:06 1.3M
20260430T12Z_MSC_GDPS_WindChill_Sfc_LatLon0.15_PT060H.grib2 2026-04-30 16:06 5.3M
20260430T12Z_MSC_GDPS_WindDir_AGL-10m_LatLon0.15_PT060H.grib2 2026-04-30 16:06 1.3M
20260430T12Z_MSC_GDPS_WindDir_AGL-120m_LatLon0.15_PT060H.grib2 2026-04-30 16:06 1.3M
20260430T12Z_MSC_GDPS_WindDir_AGL-40m_LatLon0.15_PT060H.grib2 2026-04-30 16:06 1.4M
20260430T12Z_MSC_GDPS_WindDir_AGL-80m_LatLon0.15_PT060H.grib2 2026-04-30 16:06 1.4M
20260430T12Z_MSC_GDPS_WindDir_IsbL-0001_LatLon0.15_PT060H.grib2 2026-04-30 16:06 682K
20260430T12Z_MSC_GDPS_WindDir_IsbL-0005_LatLon0.15_PT060H.grib2 2026-04-30 16:06 802K
20260430T12Z_MSC_GDPS_WindDir_IsbL-0010_LatLon0.15_PT060H.grib2 2026-04-30 16:06 830K
20260430T12Z_MSC_GDPS_WindDir_IsbL-0020_LatLon0.15_PT060H.grib2 2026-04-30 16:06 951K
20260430T12Z_MSC_GDPS_WindDir_IsbL-0030_LatLon0.15_PT060H.grib2 2026-04-30 16:06 935K
20260430T12Z_MSC_GDPS_WindDir_IsbL-0050_LatLon0.15_PT060H.grib2 2026-04-30 16:06 954K
20260430T12Z_MSC_GDPS_WindDir_IsbL-0100_LatLon0.15_PT060H.grib2 2026-04-30 16:06 1.0M
20260430T12Z_MSC_GDPS_WindDir_IsbL-0150_LatLon0.15_PT060H.grib2 2026-04-30 16:06 1.0M
20260430T12Z_MSC_GDPS_WindDir_IsbL-0175_LatLon0.15_PT060H.grib2 2026-04-30 16:06 1.0M
20260430T12Z_MSC_GDPS_WindDir_IsbL-0200_LatLon0.15_PT060H.grib2 2026-04-30 16:06 1.1M
20260430T12Z_MSC_GDPS_WindDir_IsbL-0225_LatLon0.15_PT060H.grib2 2026-04-30 16:06 1.1M
20260430T12Z_MSC_GDPS_WindDir_IsbL-0250_LatLon0.15_PT060H.grib2 2026-04-30 16:06 1.1M
20260430T12Z_MSC_GDPS_WindDir_IsbL-0275_LatLon0.15_PT060H.grib2 2026-04-30 16:06 1.2M
20260430T12Z_MSC_GDPS_WindDir_IsbL-0300_LatLon0.15_PT060H.grib2 2026-04-30 16:06 1.2M
20260430T12Z_MSC_GDPS_WindDir_IsbL-0350_LatLon0.15_PT060H.grib2 2026-04-30 16:06 1.2M
20260430T12Z_MSC_GDPS_WindDir_IsbL-0400_LatLon0.15_PT060H.grib2 2026-04-30 16:06 1.3M
20260430T12Z_MSC_GDPS_WindDir_IsbL-0450_LatLon0.15_PT060H.grib2 2026-04-30 16:06 1.3M
20260430T12Z_MSC_GDPS_WindDir_IsbL-0500_LatLon0.15_PT060H.grib2 2026-04-30 16:06 1.3M
20260430T12Z_MSC_GDPS_WindDir_IsbL-0550_LatLon0.15_PT060H.grib2 2026-04-30 16:06 1.4M
20260430T12Z_MSC_GDPS_WindDir_IsbL-0600_LatLon0.15_PT060H.grib2 2026-04-30 16:06 1.4M
20260430T12Z_MSC_GDPS_WindDir_IsbL-0650_LatLon0.15_PT060H.grib2 2026-04-30 16:06 1.5M
20260430T12Z_MSC_GDPS_WindDir_IsbL-0700_LatLon0.15_PT060H.grib2 2026-04-30 16:06 1.6M
20260430T12Z_MSC_GDPS_WindDir_IsbL-0750_LatLon0.15_PT060H.grib2 2026-04-30 16:06 1.7M
20260430T12Z_MSC_GDPS_WindDir_IsbL-0800_LatLon0.15_PT060H.grib2 2026-04-30 16:06 1.8M
20260430T12Z_MSC_GDPS_WindDir_IsbL-0850_LatLon0.15_PT060H.grib2 2026-04-30 16:06 1.9M
20260430T12Z_MSC_GDPS_WindDir_IsbL-0875_LatLon0.15_PT060H.grib2 2026-04-30 16:06 1.9M
20260430T12Z_MSC_GDPS_WindDir_IsbL-0900_LatLon0.15_PT060H.grib2 2026-04-30 16:06 2.0M
20260430T12Z_MSC_GDPS_WindDir_IsbL-0925_LatLon0.15_PT060H.grib2 2026-04-30 16:06 2.0M
20260430T12Z_MSC_GDPS_WindDir_IsbL-0950_LatLon0.15_PT060H.grib2 2026-04-30 16:06 2.0M
20260430T12Z_MSC_GDPS_WindDir_IsbL-0970_LatLon0.15_PT060H.grib2 2026-04-30 16:06 2.0M
20260430T12Z_MSC_GDPS_WindDir_IsbL-0985_LatLon0.15_PT060H.grib2 2026-04-30 16:06 2.0M
20260430T12Z_MSC_GDPS_WindDir_IsbL-1000_LatLon0.15_PT060H.grib2 2026-04-30 16:06 2.1M
20260430T12Z_MSC_GDPS_WindDir_IsbL-1015_LatLon0.15_PT060H.grib2 2026-04-30 16:06 2.0M
20260430T12Z_MSC_GDPS_WindGust-Max_AGL-10m_LatLon0.15_PT060H.grib2 2026-04-30 16:06 2.2M
20260430T12Z_MSC_GDPS_WindGust-Min_AGL-10m_LatLon0.15_PT060H.grib2 2026-04-30 16:06 2.1M
20260430T12Z_MSC_GDPS_WindGust_AGL-10m_LatLon0.15_PT060H.grib2 2026-04-30 16:06 2.1M
20260430T12Z_MSC_GDPS_WindSpeed_AGL-10m_LatLon0.15_PT060H.grib2 2026-04-30 16:06 1.1M
20260430T12Z_MSC_GDPS_WindSpeed_AGL-120m_LatLon0.15_PT060H.grib2 2026-04-30 16:06 1.3M
20260430T12Z_MSC_GDPS_WindSpeed_AGL-40m_LatLon0.15_PT060H.grib2 2026-04-30 16:06 1.2M
20260430T12Z_MSC_GDPS_WindSpeed_AGL-80m_LatLon0.15_PT060H.grib2 2026-04-30 16:06 1.3M
20260430T12Z_MSC_GDPS_WindSpeed_IsbL-0001_LatLon0.15_PT060H.grib2 2026-04-30 16:06 638K
20260430T12Z_MSC_GDPS_WindSpeed_IsbL-0005_LatLon0.15_PT060H.grib2 2026-04-30 16:06 693K
20260430T12Z_MSC_GDPS_WindSpeed_IsbL-0010_LatLon0.15_PT060H.grib2 2026-04-30 16:06 626K
20260430T12Z_MSC_GDPS_WindSpeed_IsbL-0020_LatLon0.15_PT060H.grib2 2026-04-30 16:06 666K
20260430T12Z_MSC_GDPS_WindSpeed_IsbL-0030_LatLon0.15_PT060H.grib2 2026-04-30 16:06 863K
20260430T12Z_MSC_GDPS_WindSpeed_IsbL-0050_LatLon0.15_PT060H.grib2 2026-04-30 16:06 908K
20260430T12Z_MSC_GDPS_WindSpeed_IsbL-0100_LatLon0.15_PT060H.grib2 2026-04-30 16:06 1.1M
20260430T12Z_MSC_GDPS_WindSpeed_IsbL-0150_LatLon0.15_PT060H.grib2 2026-04-30 16:06 947K
20260430T12Z_MSC_GDPS_WindSpeed_IsbL-0175_LatLon0.15_PT060H.grib2 2026-04-30 16:06 1.0M
20260430T12Z_MSC_GDPS_WindSpeed_IsbL-0200_LatLon0.15_PT060H.grib2 2026-04-30 16:06 1.1M
20260430T12Z_MSC_GDPS_WindSpeed_IsbL-0225_LatLon0.15_PT060H.grib2 2026-04-30 16:06 1.1M
20260430T12Z_MSC_GDPS_WindSpeed_IsbL-0250_LatLon0.15_PT060H.grib2 2026-04-30 16:06 1.1M
20260430T12Z_MSC_GDPS_WindSpeed_IsbL-0275_LatLon0.15_PT060H.grib2 2026-04-30 16:06 1.1M
20260430T12Z_MSC_GDPS_WindSpeed_IsbL-0300_LatLon0.15_PT060H.grib2 2026-04-30 16:06 1.1M
20260430T12Z_MSC_GDPS_WindSpeed_IsbL-0350_LatLon0.15_PT060H.grib2 2026-04-30 16:06 1.1M
20260430T12Z_MSC_GDPS_WindSpeed_IsbL-0400_LatLon0.15_PT060H.grib2 2026-04-30 16:06 1.1M
20260430T12Z_MSC_GDPS_WindSpeed_IsbL-0450_LatLon0.15_PT060H.grib2 2026-04-30 16:06 1.1M
20260430T12Z_MSC_GDPS_WindSpeed_IsbL-0500_LatLon0.15_PT060H.grib2 2026-04-30 16:06 1.1M
20260430T12Z_MSC_GDPS_WindSpeed_IsbL-0550_LatLon0.15_PT060H.grib2 2026-04-30 16:06 1.1M
20260430T12Z_MSC_GDPS_WindSpeed_IsbL-0600_LatLon0.15_PT060H.grib2 2026-04-30 16:06 1.1M
20260430T12Z_MSC_GDPS_WindSpeed_IsbL-0650_LatLon0.15_PT060H.grib2 2026-04-30 16:06 1.4M
20260430T12Z_MSC_GDPS_WindSpeed_IsbL-0700_LatLon0.15_PT060H.grib2 2026-04-30 16:06 1.5M
20260430T12Z_MSC_GDPS_WindSpeed_IsbL-0750_LatLon0.15_PT060H.grib2 2026-04-30 16:06 1.6M
20260430T12Z_MSC_GDPS_WindSpeed_IsbL-0800_LatLon0.15_PT060H.grib2 2026-04-30 16:06 1.6M
20260430T12Z_MSC_GDPS_WindSpeed_IsbL-0850_LatLon0.15_PT060H.grib2 2026-04-30 16:06 1.7M
20260430T12Z_MSC_GDPS_WindSpeed_IsbL-0875_LatLon0.15_PT060H.grib2 2026-04-30 16:06 1.8M
20260430T12Z_MSC_GDPS_WindSpeed_IsbL-0900_LatLon0.15_PT060H.grib2 2026-04-30 16:06 1.8M
20260430T12Z_MSC_GDPS_WindSpeed_IsbL-0925_LatLon0.15_PT060H.grib2 2026-04-30 16:06 1.8M
20260430T12Z_MSC_GDPS_WindSpeed_IsbL-0950_LatLon0.15_PT060H.grib2 2026-04-30 16:06 1.8M
20260430T12Z_MSC_GDPS_WindSpeed_IsbL-0970_LatLon0.15_PT060H.grib2 2026-04-30 16:06 1.9M
20260430T12Z_MSC_GDPS_WindSpeed_IsbL-0985_LatLon0.15_PT060H.grib2 2026-04-30 16:06 1.9M
20260430T12Z_MSC_GDPS_WindSpeed_IsbL-1000_LatLon0.15_PT060H.grib2 2026-04-30 16:06 1.9M
20260430T12Z_MSC_GDPS_WindSpeed_IsbL-1015_LatLon0.15_PT060H.grib2 2026-04-30 16:06 1.8M
20260430T12Z_MSC_GDPS_WindU_AGL-10m_LatLon0.15_PT060H.grib2 2026-04-30 16:06 1.3M
20260430T12Z_MSC_GDPS_WindU_AGL-120m_LatLon0.15_PT060H.grib2 2026-04-30 16:06 1.0M
20260430T12Z_MSC_GDPS_WindU_AGL-40m_LatLon0.15_PT060H.grib2 2026-04-30 16:06 1.0M
20260430T12Z_MSC_GDPS_WindU_AGL-80m_LatLon0.15_PT060H.grib2 2026-04-30 16:06 1.0M
20260430T12Z_MSC_GDPS_WindU_IsbL-0001_LatLon0.15_PT060H.grib2 2026-04-30 16:06 497K
20260430T12Z_MSC_GDPS_WindU_IsbL-0005_LatLon0.15_PT060H.grib2 2026-04-30 16:06 693K
20260430T12Z_MSC_GDPS_WindU_IsbL-0010_LatLon0.15_PT060H.grib2 2026-04-30 16:06 701K
20260430T12Z_MSC_GDPS_WindU_IsbL-0020_LatLon0.15_PT060H.grib2 2026-04-30 16:06 731K
20260430T12Z_MSC_GDPS_WindU_IsbL-0030_LatLon0.15_PT060H.grib2 2026-04-30 16:06 739K
20260430T12Z_MSC_GDPS_WindU_IsbL-0050_LatLon0.15_PT060H.grib2 2026-04-30 16:06 768K
20260430T12Z_MSC_GDPS_WindU_IsbL-0100_LatLon0.15_PT060H.grib2 2026-04-30 16:06 926K
20260430T12Z_MSC_GDPS_WindU_IsbL-0150_LatLon0.15_PT060H.grib2 2026-04-30 16:06 1.0M
20260430T12Z_MSC_GDPS_WindU_IsbL-0175_LatLon0.15_PT060H.grib2 2026-04-30 16:06 1.0M
20260430T12Z_MSC_GDPS_WindU_IsbL-0200_LatLon0.15_PT060H.grib2 2026-04-30 16:06 1.0M
20260430T12Z_MSC_GDPS_WindU_IsbL-0225_LatLon0.15_PT060H.grib2 2026-04-30 16:06 853K
20260430T12Z_MSC_GDPS_WindU_IsbL-0250_LatLon0.15_PT060H.grib2 2026-04-30 16:06 854K
20260430T12Z_MSC_GDPS_WindU_IsbL-0275_LatLon0.15_PT060H.grib2 2026-04-30 16:06 881K
20260430T12Z_MSC_GDPS_WindU_IsbL-0300_LatLon0.15_PT060H.grib2 2026-04-30 16:06 873K
20260430T12Z_MSC_GDPS_WindU_IsbL-0350_LatLon0.15_PT060H.grib2 2026-04-30 16:06 887K
20260430T12Z_MSC_GDPS_WindU_IsbL-0400_LatLon0.15_PT060H.grib2 2026-04-30 16:06 889K
20260430T12Z_MSC_GDPS_WindU_IsbL-0450_LatLon0.15_PT060H.grib2 2026-04-30 16:06 1.1M
20260430T12Z_MSC_GDPS_WindU_IsbL-0500_LatLon0.15_PT060H.grib2 2026-04-30 16:06 1.1M
20260430T12Z_MSC_GDPS_WindU_IsbL-0550_LatLon0.15_PT060H.grib2 2026-04-30 16:06 1.1M
20260430T12Z_MSC_GDPS_WindU_IsbL-0600_LatLon0.15_PT060H.grib2 2026-04-30 16:06 1.1M
20260430T12Z_MSC_GDPS_WindU_IsbL-0650_LatLon0.15_PT060H.grib2 2026-04-30 16:06 1.2M
20260430T12Z_MSC_GDPS_WindU_IsbL-0700_LatLon0.15_PT060H.grib2 2026-04-30 16:06 1.2M
20260430T12Z_MSC_GDPS_WindU_IsbL-0750_LatLon0.15_PT060H.grib2 2026-04-30 16:06 1.3M
20260430T12Z_MSC_GDPS_WindU_IsbL-0800_LatLon0.15_PT060H.grib2 2026-04-30 16:06 1.3M
20260430T12Z_MSC_GDPS_WindU_IsbL-0850_LatLon0.15_PT060H.grib2 2026-04-30 16:06 1.4M
20260430T12Z_MSC_GDPS_WindU_IsbL-0875_LatLon0.15_PT060H.grib2 2026-04-30 16:06 1.5M
20260430T12Z_MSC_GDPS_WindU_IsbL-0900_LatLon0.15_PT060H.grib2 2026-04-30 16:06 1.5M
20260430T12Z_MSC_GDPS_WindU_IsbL-0925_LatLon0.15_PT060H.grib2 2026-04-30 16:06 1.5M
20260430T12Z_MSC_GDPS_WindU_IsbL-0950_LatLon0.15_PT060H.grib2 2026-04-30 16:06 1.4M
20260430T12Z_MSC_GDPS_WindU_IsbL-0970_LatLon0.15_PT060H.grib2 2026-04-30 16:06 1.4M
20260430T12Z_MSC_GDPS_WindU_IsbL-0985_LatLon0.15_PT060H.grib2 2026-04-30 16:06 1.4M
20260430T12Z_MSC_GDPS_WindU_IsbL-1000_LatLon0.15_PT060H.grib2 2026-04-30 16:06 1.4M
20260430T12Z_MSC_GDPS_WindU_IsbL-1015_LatLon0.15_PT060H.grib2 2026-04-30 16:06 1.4M
20260430T12Z_MSC_GDPS_WindV_AGL-10m_LatLon0.15_PT060H.grib2 2026-04-30 16:06 1.3M
20260430T12Z_MSC_GDPS_WindV_AGL-120m_LatLon0.15_PT060H.grib2 2026-04-30 16:06 1.0M
20260430T12Z_MSC_GDPS_WindV_AGL-40m_LatLon0.15_PT060H.grib2 2026-04-30 16:06 970K
20260430T12Z_MSC_GDPS_WindV_AGL-80m_LatLon0.15_PT060H.grib2 2026-04-30 16:06 1.0M
20260430T12Z_MSC_GDPS_WindV_IsbL-0001_LatLon0.15_PT060H.grib2 2026-04-30 16:06 776K
20260430T12Z_MSC_GDPS_WindV_IsbL-0005_LatLon0.15_PT060H.grib2 2026-04-30 16:06 762K
20260430T12Z_MSC_GDPS_WindV_IsbL-0010_LatLon0.15_PT060H.grib2 2026-04-30 16:06 794K
20260430T12Z_MSC_GDPS_WindV_IsbL-0020_LatLon0.15_PT060H.grib2 2026-04-30 16:06 935K
20260430T12Z_MSC_GDPS_WindV_IsbL-0030_LatLon0.15_PT060H.grib2 2026-04-30 16:06 937K
20260430T12Z_MSC_GDPS_WindV_IsbL-0050_LatLon0.15_PT060H.grib2 2026-04-30 16:06 1.0M
20260430T12Z_MSC_GDPS_WindV_IsbL-0100_LatLon0.15_PT060H.grib2 2026-04-30 16:06 1.1M
20260430T12Z_MSC_GDPS_WindV_IsbL-0150_LatLon0.15_PT060H.grib2 2026-04-30 16:06 1.0M
20260430T12Z_MSC_GDPS_WindV_IsbL-0175_LatLon0.15_PT060H.grib2 2026-04-30 16:06 1.0M
20260430T12Z_MSC_GDPS_WindV_IsbL-0200_LatLon0.15_PT060H.grib2 2026-04-30 16:06 843K
20260430T12Z_MSC_GDPS_WindV_IsbL-0225_LatLon0.15_PT060H.grib2 2026-04-30 16:06 850K
20260430T12Z_MSC_GDPS_WindV_IsbL-0250_LatLon0.15_PT060H.grib2 2026-04-30 16:06 849K
20260430T12Z_MSC_GDPS_WindV_IsbL-0275_LatLon0.15_PT060H.grib2 2026-04-30 16:06 933K
20260430T12Z_MSC_GDPS_WindV_IsbL-0300_LatLon0.15_PT060H.grib2 2026-04-30 16:06 924K
20260430T12Z_MSC_GDPS_WindV_IsbL-0350_LatLon0.15_PT060H.grib2 2026-04-30 16:06 876K
20260430T12Z_MSC_GDPS_WindV_IsbL-0400_LatLon0.15_PT060H.grib2 2026-04-30 16:06 879K
20260430T12Z_MSC_GDPS_WindV_IsbL-0450_LatLon0.15_PT060H.grib2 2026-04-30 16:06 1.1M
20260430T12Z_MSC_GDPS_WindV_IsbL-0500_LatLon0.15_PT060H.grib2 2026-04-30 16:06 1.1M
20260430T12Z_MSC_GDPS_WindV_IsbL-0550_LatLon0.15_PT060H.grib2 2026-04-30 16:06 1.1M
20260430T12Z_MSC_GDPS_WindV_IsbL-0600_LatLon0.15_PT060H.grib2 2026-04-30 16:06 1.1M
20260430T12Z_MSC_GDPS_WindV_IsbL-0650_LatLon0.15_PT060H.grib2 2026-04-30 16:06 1.2M
20260430T12Z_MSC_GDPS_WindV_IsbL-0700_LatLon0.15_PT060H.grib2 2026-04-30 16:06 1.2M
20260430T12Z_MSC_GDPS_WindV_IsbL-0750_LatLon0.15_PT060H.grib2 2026-04-30 16:06 1.3M
20260430T12Z_MSC_GDPS_WindV_IsbL-0800_LatLon0.15_PT060H.grib2 2026-04-30 16:06 1.3M
20260430T12Z_MSC_GDPS_WindV_IsbL-0850_LatLon0.15_PT060H.grib2 2026-04-30 16:06 1.4M
20260430T12Z_MSC_GDPS_WindV_IsbL-0875_LatLon0.15_PT060H.grib2 2026-04-30 16:06 1.4M
20260430T12Z_MSC_GDPS_WindV_IsbL-0900_LatLon0.15_PT060H.grib2 2026-04-30 16:06 1.5M
20260430T12Z_MSC_GDPS_WindV_IsbL-0925_LatLon0.15_PT060H.grib2 2026-04-30 16:06 1.5M
20260430T12Z_MSC_GDPS_WindV_IsbL-0950_LatLon0.15_PT060H.grib2 2026-04-30 16:06 1.4M
20260430T12Z_MSC_GDPS_WindV_IsbL-0970_LatLon0.15_PT060H.grib2 2026-04-30 16:06 1.4M
20260430T12Z_MSC_GDPS_WindV_IsbL-0985_LatLon0.15_PT060H.grib2 2026-04-30 16:06 1.4M
20260430T12Z_MSC_GDPS_WindV_IsbL-1000_LatLon0.15_PT060H.grib2 2026-04-30 16:06 1.4M
20260430T12Z_MSC_GDPS_WindV_IsbL-1015_LatLon0.15_PT060H.grib2 2026-04-30 16:06 1.3M